Content
SEND FEEDBACK

Daily
Averages
Monthly
Summary
France

OISSEL, FRANCE


Home > Europe > France
Elevation: 515 feet     Latitude: 49 22N     Longitude: 001 10E

WEATHER
 
SELECT A DAY
Number of Records: 173,411;   Date Range: 7/1/96 - 8/10/14
 
SHARE

PRINT THIS DATA

[ ← Previous Day ]
WEATHER ALMANAC - MAY 7, 2013
[ Next Day → ]
[ °C ]   °F
Weather ElementAverageHighLow
Temperature59.2 °F71.6 °F (5:00 pm)46.4 °F (5:30 am)
Dewpoint47 °F50 °F (9:00 am)42.8 °F (5:00 am)
Humidity65.3 %93 % (6:00 am)36 % (2:00 pm)
Barometer30.01 in30.09 in (12:30 am)29.92 in (10:30 pm)
Wind Speed3.6 mph8.1 mph (10:00 pm)
Weather ElementAverage
Visibility6.8 mi
Wind DirectionENE (59.8 °)

Weather ElementTotal
Precipitation---
Heating Degree Days6 (Base 65)
Growing Degree Days9 (Base 50)
Averaged from 51 records on May 7, 2013
WEATHER CONDITIONS BREAKOUT
WIND DIRECTION BREAKOUT
WEATHER BY HOUR - MAY 7, 2013
[ °C ]   °F
Local TimeTemperatureDewpointHumidityBarometerVisibilityWind DirectionWind SpeedGust SpeedPrecipitationEventsConditions
12:30 AM51.8 °F46.4 °F82 %30.09 in6.2 miENE (60°)5.8 mph
1:00 AM51.8 °F46.4 °F82 %30.06 in6.2 miENE (70°)5.8 mph
1:30 AM50.0 °F44.6 °F82 %30.06 in6.2 miENE (60°)4.6 mph
2:00 AM49.0 °F45.0 °F81 %30.09 in22.0 miENE (70°)3.5 mphClear
2:00 AM50.0 °F44.6 °F82 %30.06 in6.2 miENE (70°)3.5 mph
2:30 AM50.0 °F44.6 °F82 %30.06 in6.2 miEast (80°)4.6 mph
3:00 AM48.2 °F44.6 °F87 %30.04 in6.2 miEast (80°)4.6 mph
3:30 AM48.2 °F44.6 °F87 %30.04 in6.2 miEast (90°)3.5 mph
4:00 AM48.2 °F44.6 °F87 %30.04 in6.2 miEast (80°)4.6 mph
4:30 AM48.2 °F44.6 °F87 %30.04 in6.2 miENE (60°)6.9 mph
5:00 AM48.2 °F42.8 °F82 %30.04 in6.2 miENE (70°)5.8 mph
5:30 AM46.4 °F42.8 °F87 %30.04 in6.2 miESE (110°)1.2 mph
6:00 AM46.4 °F44.6 °F93 %30.04 in6.2 miVariable2.3 mph
6:30 AM48.2 °F44.6 °F87 %30.04 in6.2 miEast (100°)2.3 mph
7:00 AM46.4 °F42.8 °F87 %30.04 in6.2 miCalm
7:30 AM50.0 °F44.6 °F82 %30.04 in6.2 miESE (120°)2.3 mph
8:00 AM55.0 °F48.0 °F69 %30.05 in9.0 miEast (100°)2.3 mphClear
8:00 AM55.4 °F48.2 °F77 %30.04 in6.2 miEast (100°)2.3 mph
8:30 AM55.4 °F48.2 °F77 %30.04 in6.2 miEast (90°)6.9 mph
9:00 AM59.0 °F50.0 °F72 %30.04 in6.2 miESE (120°)3.5 mph
9:30 AM60.8 °F50.0 °F68 %30.04 in6.2 miVariable2.3 mph
10:00 AM62.6 °F48.2 °F59 %30.04 in6.2 miESE (110°)3.5 mph
10:30 AM64.4 °F50.0 °F59 %30.04 in6.2 miSE (130°)3.5 mph
11:00 AM64.4 °F50.0 °F59 %30.04 in6.2 miVariable2.3 mph
11:30 AM64.4 °F50.0 °F59 %30.04 in6.2 miVariable2.3 mph
12:00 PM66.2 °F48.2 °F52 %30.04 in6.2 miVariable2.3 mph
12:30 PM66.2 °F48.2 °F52 %30.04 in6.2 miNE (50°)4.6 mph
1:00 PM66.2 °F48.2 °F52 %30.04 in6.2 miEast (90°)4.6 mph
1:30 PM68.0 °F48.2 °F49 %30.01 in6.2 miVariable3.5 mph
2:00 PM67.0 °F46.0 °F36 %30.01 in12.0 miNE (50°)2.3 mphScattered Clouds
2:00 PM66.2 °F46.4 °F49 %30.01 in6.2 miVariable2.3 mph
2:30 PM68.0 °F46.4 °F46 %30.01 in6.2 miVariable1.2 mph
3:00 PM68.0 °F48.2 °F49 %30.01 in6.2 miVariable1.2 mph
3:30 PM68.0 °F48.2 °F49 %30.01 in6.2 miVariable3.5 mph
4:00 PM69.8 °F48.2 °F46 %29.98 in6.2 miVariable2.3 mph
4:30 PM69.8 °F46.4 °F43 %29.98 in6.2 miVariable2.3 mph
5:00 PM71.6 °F44.6 °F38 %29.98 in6.2 miVariable2.3 mph
5:30 PM68.0 °F46.4 °F46 %29.98 in6.2 miSSE (150°)4.6 mph
6:00 PM69.8 °F50.0 °F49 %29.95 inVariable2.3 mphClear
6:30 PM69.8 °F48.2 °F46 %29.95 in6.2 miCalm
7:00 PM68.0 °F48.2 °F49 %29.95 in6.2 miEast (100°)5.8 mph
7:30 PM66.2 °F48.2 °F52 %29.95 in6.2 miEast (100°)3.5 mph
8:00 PM65.0 °F48.0 °F43 %29.94 in12.0 miSE (130°)2.3 mphClear
8:00 PM64.4 °F48.2 °F56 %29.95 in6.2 miVariable2.3 mph
8:30 PM62.6 °F48.2 °F59 %29.95 in6.2 miEast (100°)3.5 mph
9:00 PM60.8 °F48.2 °F63 %29.95 in6.2 miESE (120°)3.5 mph
9:30 PM59.0 °F46.4 °F63 %29.95 in6.2 miEast (100°)4.6 mph
10:00 PM59.0 °F50.0 °F72 %29.95 in6.2 miNE (50°)8.1 mph
10:30 PM57.2 °F48.2 °F72 %29.92 in6.2 miENE (70°)6.9 mph
11:00 PM57.2 °F48.2 °F72 %29.92 in6.2 miEast (80°)8.1 mph
11:30 PM55.4 °F46.4 °F72 %29.92 in6.2 miEast (90°)6.9 mph
Hourly data recorded from LFOP, located miles away from Oissel, France







STORIES FROM OUR PARTNERS